Location: Bégole
(43.1574°N, 0.3291°E)
Time: 20:33:45
(UTC+00:00)

Cosmos 1697 Rocket - Visible Passes

Search period start: 26 February 2024 00:00
Search period end: 07 March 2024 00:00
Orbit: 831 x 844 km, 71.0° (Epoch: 26 February)

Date Brightness Start Highest point End Pass type
(mag) Time Alt. Az. Time Alt. Az. Time Alt. Az.
26 Feb 5.9 19:33:54 10° WNW 19:35:38 11° W 19:37:21 10° WSW visible
27 Feb 5.9 19:17:04 10° WNW 19:19:22 13° W 19:21:39 10° WSW visible
28 Feb 5.9 19:00:23 10° WNW 19:03:06 14° W 19:05:49 10° SW visible
29 Feb 5.9 18:43:45 10° WNW 18:46:50 15° W 18:49:54 10° SW visible
01 Mar 5.8 06:07:35 10° SE 06:11:24 19° E 06:15:14 10° ENE visible
01 Mar 5.8 18:27:11 10° WNW 18:30:33 16° W 18:33:55 10° SW visible
02 Mar 5.8 05:51:32 10° SE 05:55:07 17° E 05:58:43 10° ENE visible
02 Mar 5.8 18:10:38 10° WNW 18:14:17 18° W 18:17:55 10° SW visible
03 Mar 5.8 05:35:32 10° SE 05:38:50 16° E 05:42:10 10° ENE visible
04 Mar 5.8 05:19:34 10° SE 05:22:34 15° E 05:25:35 10° ENE visible
05 Mar 5.8 05:03:39 10° SE 05:06:18 14° E 05:08:57 10° ENE visible
06 Mar 5.8 04:47:50 10° ESE 04:50:02 12° E 04:52:15 10° ENE visible
